This is the latest recevied weather packets stored in our database for station/object F6BIJ-13. If no packets are shown the sender has not sent any weather packets the latest 10 day(s).
| Time | Temp. | Humidity | Pressure | Rain* | Wind** | Luminosity | Snow |
|---|---|---|---|---|---|---|---|
| 1778231917 | 17.22° C | 64% | 1015.8 hPa | 0 mm | - | - | - |
| 1778231557 | 17.22° C | 64% | 1015.8 hPa | 0 mm | - | - | - |
| 1778231197 | 18.33° C | 62% | 1015.8 hPa | 0 mm | - | - | - |
| 1778230837 | 17.78° C | 66% | 1015.8 hPa | 0 mm | - | - | - |
| 1778230477 | 17.78° C | 62% | 1015.9 hPa | 0 mm | - | - | - |
| 1778230117 | 17.78° C | 66% | 1015.8 hPa | 0 mm | - | - | - |
| 1778229757 | 16.67° C | 66% | 1015.8 hPa | 0 mm | - | - | - |
| 1778229397 | 17.22° C | 67% | 1015.8 hPa | 0 mm | - | - | - |
| 1778229037 | 16.67° C | 67% | 1016 hPa | 0 mm | - | - | - |
| 1778228676 | 17.22° C | 67% | 1016 hPa | 0 mm | - | - | - |
| 1778228317 | 15.56° C | 70% | 1015.9 hPa | 0 mm | - | - | - |
| 1778227957 | 16.67° C | 70% | 1015.9 hPa | 0 mm | - | - | - |
| 1778227597 | 17.22° C | 69% | 1015.9 hPa | 0 mm | - | - | - |
| 1778227237 | 16.11° C | 74% | 1015.9 hPa | 0 mm | - | - | - |
| 1778226877 | 15.56° C | 69% | 1016 hPa | 0 mm | - | - | - |
| 1778226517 | 16.67° C | 67% | 1016 hPa | 0 mm | - | - | - |
| 1778226157 | 17.22° C | 68% | 1016.1 hPa | 0 mm | - | - | - |
| 1778225797 | 15.56° C | 72% | 1016.1 hPa | 0 mm | - | - | - |
| 1778225437 | 15.56° C | 72% | 1016 hPa | 0 mm | - | - | - |
| 1778225076 | 15° C | 79% | 1016 hPa | 0 mm | - | - | - |
| 1778224717 | 13.89° C | 77% | 1016.1 hPa | 0 mm | - | - | - |
| 1778224357 | 14.44° C | 74% | 1016 hPa | 0 mm | - | - | - |
| 1778223997 | 15.56° C | 75% | 1016 hPa | 0 mm | - | - | - |
| 1778223637 | 15.56° C | 69% | 1016 hPa | 0 mm | - | - | - |
| 1778223277 | 16.67° C | 70% | 1016 hPa | 0 mm | - | - | - |
* Rain latest 24 hours (hover to see other rain measurements)
** Current wind speed in m/s (hover to see current wind gust speed)